EW7617 Weather Reports


time (UTC)temp
C
wind
direction
speed
KPH
gust
KPH
rain 1hr
cm
rain 24hr
cm
rain mn
cm
humidity
%
barometer
mb
20260906183045 18 236 0.0 8.0 0.94 2.29 2.29 88 1014.6
20260906181538 18 359 3.2 12.9 0.84 2.11 2.11 88 1015.8
20260906180030 19 321 3.2 14.5 1.42 1.85 1.85 88 1016.2
20260906174525 19 344 4.8 12.9 1.50 1.50 1.50 88 1015.7
20260906173021 19 278 0.0 9.7 1.35 1.35 1.35 88 1014.8
20260906171520 19 257 4.8 12.9 1.24 1.24 1.24 88 1014.3
20260906170017 20 316 0.0 4.8 0.33 0.33 0.33 84 1014.3
20260906164514 20 315 1.6 8.0 0.00 0.00 0.00 80 1014.3
20260906163009 22 356 4.8 14.5 0.00 0.00 0.00 73 1014.6
20260906161510 23 255 1.6 3.2 0.00 0.00 0.00 84 1014.0
20260906160003 24 341 0.0 3.2 0.00 0.10 0.00 85 1013.1
20260906154502 23 130 0.0 4.8 0.00 0.10 0.00 87 1013.0
20260906153111 23 229 1.6 4.8 0.00 0.10 0.00 88 1012.7
20260906151556 23 89 3.2 11.3 0.00 0.10 0.00 89 1012.3
20260906150106 22 101 0.0 3.2 0.00 0.10 0.00 90 1012.4
20260906144556 22 189 0.0 3.2 0.00 0.20 0.00 91 1012.7
20260906143055 22 77 0.0 4.8 0.00 0.20 0.00 91 1012.9
20260906141612 22 95 1.6 6.4 0.00 0.20 0.00 91 1013.0
20260906140053 22 41 0.0 3.2 0.00 0.20 0.00 91 1013.0
20260906134551 22 105 0.0 9.7 0.00 0.81 0.00 91 1012.8
20260906133058 22 114 1.6 8.0 0.00 0.81 0.00 91 1012.7
20260906131601 22 84 0.0 4.8 0.00 0.81 0.00 91 1012.8
20260906130057 22 33 0.0 4.8 0.00 0.81 0.00 92 1012.7
20260906124548 22 262 0.0 4.8 0.00 0.81 0.00 92 1012.7
20260906123047 22 94 0.0 8.0 0.00 0.81 0.00 92 1012.6
20260906121546 22 136 0.0 3.2 0.00 0.81 0.00 91 1012.6
20260906120043 22 47 0.0 4.8 0.00 0.81 0.00 91 1012.4
20260906114549 22 304 0.0 6.4 0.00 0.81 0.00 91 1012.2
20260906113042 22 84 0.0 4.8 0.00 0.81 0.00 91 1012.1
20260906111546 22 79 1.6 4.8 0.00 0.81 0.00 91 1012.0
20260906110042 22 70 0.0 4.8 0.00 0.81 0.00 91 1012.0
20260906104540 22 80 1.6 8.0 0.00 0.81 0.00 90 1012.0
20260906103041 22 39 0.0 4.8 0.00 0.81 0.00 90 1011.9
20260906101538 22 94 0.0 3.2 0.00 0.81 0.00 90 1012.0
20260906100037 22 119 0.0 4.8 0.00 0.81 0.00 90 1012.1
20260906094542 22 56 0.0 4.8 0.00 0.81 0.00 90 1012.2
20260906093037 22 78 0.0 3.2 0.00 0.81 0.00 90 1012.2
20260906091536 22 126 0.0 3.2 0.00 0.81 0.00 90 1012.2
20260906090040 22 349 0.0 6.4 0.00 0.81 0.00 90 1012.0
20260906084534 22 40 0.0 4.8 0.00 0.81 0.00 90 1011.8
20260906083032 22 248 0.0 1.6 0.00 0.81 0.00 90 1011.7
20260906081532 23 72 0.0 1.6 0.00 0.81 0.00 90 1011.6
20260906080037 23 237 0.0 3.2 0.00 0.81 0.00 89 1011.7
20260906074532 23 25 0.0 3.2 0.00 0.81 0.00 89 1011.6
20260906073029 23 137 1.6 6.4 0.00 0.81 0.00 90 1011.7
20260906071529 22 41 0.0 1.6 0.00 0.81 0.00 89 1011.7
20260906070027 22 98 0.0 1.6 0.00 0.81 0.00 89 1011.9
20260906064529 22 326 0.0 1.6 0.00 0.81 0.00 89 1011.8
20260906063025 22 111 0.0 1.6 0.00 0.81 0.00 88 1012.0
20260906061524 23 112 0.0 1.6 0.00 0.81 0.00 89 1011.9
20260906060024 23 102 0.0 4.8 0.00 0.81 0.00 89 1011.8
20260906054522 23 141 0.0 4.8 0.00 0.81 0.00 88 1011.9
20260906053024 23 288 0.0 1.6 0.00 0.81 0.00 88 1011.8
20260906051520 23 281 0.0 0.0 0.00 0.81 0.00 88 1011.8
20260906050020 23 281 0.0 1.6 0.00 0.81 0.00 88 1011.9
20260906044519 23 322 0.0 0.0 0.00 0.81 0.81 87 1011.9
20260906043027 23 191 0.0 0.0 0.00 0.81 0.81 87 1011.9
20260906041516 23 191 0.0 0.0 0.00 0.81 0.81 87 1011.8
20260906040015 23 172 0.0 1.6 0.00 0.81 0.81 87 1011.7
20260906034524 23 248 0.0 1.6 0.00 0.81 0.81 86 1011.7
20260906033014 23 321 0.0 1.6 0.00 0.81 0.81 85 1011.7
20260906031520 23 286 0.0 1.6 0.00 0.81 0.81 85 1011.7
20260906030013 23 309 0.0 1.6 0.00 0.81 0.81 84 1011.7
20260906024513 23 293 0.0 1.6 0.00 0.81 0.81 83 1011.6
20260906023012 23 292 0.0 1.6 0.00 0.81 0.81 83 1011.5
20260906021512 23 289 0.0 1.6 0.00 0.81 0.81 82 1011.6
20260906020010 24 333 0.0 1.6 0.00 0.81 0.81 81 1011.2
20260906014510 24 333 0.0 1.6 0.00 0.81 0.81 80 1011.1
20260906013009 24 334 0.0 1.6 0.00 0.81 0.81 78 1011.0
20260906011509 25 349 0.0 0.0 0.00 0.81 0.81 77 1010.7
20260906010009 25 350 0.0 1.6 0.00 0.81 0.81 75 1010.6
20260906004508 26 4 0.0 1.6 0.00 0.81 0.81 73 1010.5
20260906003007 26 315 0.0 1.6 0.00 0.81 0.81 70 1010.6
20260906001506 28 187 0.0 1.6 0.00 0.81 0.81 66 1010.6
20260906000006 28 276 0.0 1.6 0.00 0.81 0.81 64 1010.7
20260905234506 28 274 0.0 3.2 0.00 0.81 0.81 63 1010.7
20260905233004 29 328 0.0 3.2 0.00 0.81 0.81 61 1010.7
20260905231510 30 288 0.0 3.2 0.00 0.81 0.81 59 1010.4
20260905230002 30 70 0.0 9.7 0.00 0.81 0.81 60 1010.4
20260905224502 31 310 0.0 1.6 0.00 0.81 0.81 57 1010.3
20260905223058 30 243 0.0 8.0 0.00 0.81 0.81 58 1010.2
20260905221601 30 148 1.6 8.0 0.00 0.81 0.81 57 1010.3
20260905220059 31 87 1.6 6.4 0.00 0.81 0.81 57 1010.2
20260905214555 30 330 0.0 6.4 0.00 0.81 0.81 57 1010.0
20260905213053 29 131 0.0 6.4 0.00 0.81 0.81 59 1010.0
20260905211553 28 114 3.2 11.3 0.00 0.81 0.81 62 1009.8
20260905210153 29 96 3.2 8.0 0.00 0.81 0.81 57 1009.6
20260905204553 29 117 1.6 4.8 0.00 0.81 0.81 60 1009.7
20260905203052 30 303 0.0 4.8 0.00 0.81 0.81 57 1009.7
20260905201549 29 359 0.0 1.6 0.00 0.81 0.81 61 1009.5
20260905200112 29 311 0.0 3.2 0.00 0.81 0.81 57 1009.4
20260905194548 29 295 1.6 11.3 0.00 0.81 0.81 56 1009.5
20260905193047 30 96 0.0 6.4 0.00 0.81 0.81 58 1009.4
20260905191546 30 99 0.0 3.2 0.00 0.81 0.81 59 1009.3
20260905190041 29 91 0.0 4.8 0.00 0.81 0.81 60 1009.3
20260905184548 28 122 0.0 3.2 0.00 0.81 0.81 66 1009.6